Location: Alsip
(41.6689°N, 87.7387°W)
Time: 10:44:16
(UTC+00:00)

GEOS 3 Rocket - Pass Details

Date: 30 October 2020
Orbit: 770 x 850 km, 115.0° (Epoch: 25 November)

Event Time Altitude Azimuth Distance (km) Brightness Sun altitude
Exits shadow 01:01:51 53° 34° (NE) 1,023 3.9 -25.4°
Drops below altitude 10° 01:06:46 10° 332° (NNW) 2,473 6.5 -26.3°
Sets 01:09:09 0° 328° (NNW) 3,416 7.3 -26.8°
